Flag for U.S.A. Weather past 2 weeks in Cupertino, California, U.S.A.

Now
57 °F

Sunny.


Feels Like: 56 °F
Forecast: 38 / 54 °F
Wind: 7 mph from North

Location: Moffett Field

Current Time: Dec 26, 2014 at 1:33:17 PM

Latest Report: Dec 26, 2014 at 12:56 PM


Visibility: 10 mi

Pressure: 30.19 "Hg

Humidity: 36%

Dew point: 30 °F

Location of CupertinoLocation

Historic Weather in Cupertino — Graph

°F

Cupertino temperature yesterday

Maximum temperature yesterday: 57 °F (at 2:56 PM)
Minimum temperature yesterday: 45 °F (at 4:56 AM)
Average temperature yesterday: 50 °F

Past Weeks' High & Low Weather Summary

 TemperatureHumidityPressure
High69 °F (Dec 23, 2:56 PM)100% (Dec 11, 3:04 PM)30.34 "Hg (Dec 11, 3:04 PM)
Low42 °F (Dec 26, 6:56 AM)36% (Dec 26, 11:56 AM)29.64 "Hg (Dec 11, 1:56 PM)
Average54 °F82%30.09 "Hg
* Reported Dec 11 11:56 AM — Dec 26 11:56 AM, Cupertino, Weather by CustomWeather, © 2014

Note: Actual official high and low records may vary slightly from our data, if they occured in-between our weather recording intervals... More about our weather records

Advertising

Cupertino weather history for previous 24 hours

 ConditionsComfort  
Time TempWeatherWind HumidityBarometerVisibility
11:56 AM
Dec 26
56 °FSunny.5 mph36%30.22 "Hg10 mi
10:56 AM54 °FSunny.8 mph37%30.23 "Hg10 mi
9:56 AM52 °FSunny.9 mph40%30.24 "Hg10 mi
8:56 AM50 °FSunny.7 mph48%30.21 "Hg10 mi
7:56 AM46 °FSunny.5 mph54%30.19 "Hg10 mi
6:56 AM42 °FClear.3 mph68%30.17 "Hg10 mi
5:56 AM44 °FClear.3 mph63%30.16 "Hg10 mi
4:56 AM46 °FClear.3 mph61%30.15 "Hg10 mi
3:56 AM45 °FClear.3 mph68%30.14 "Hg10 mi
2:56 AM45 °FClear.No wind74%30.13 "Hg10 mi
1:56 AM45 °FClear.3 mph74%30.13 "Hg10 mi
12:56 AM47 °FClear.3 mph71%30.12 "Hg10 mi
11:56 PM
Dec 25
48 °FClear.7 mph71%30.12 "Hg10 mi
10:56 PM49 °FClear.7 mph66%30.13 "Hg10 mi
9:56 PM49 °FClear.No wind71%30.13 "Hg10 mi
8:56 PM51 °FClear.9 mph63%30.12 "Hg10 mi
7:56 PM50 °FClear.3 mph54%30.12 "Hg10 mi
6:56 PM52 °FClear.3 mph57%30.11 "Hg10 mi
5:56 PM53 °FClear.3 mph51%30.09 "Hg10 mi
4:56 PM54 °FClear.10 mph49%30.07 "Hg10 mi
3:56 PM57 °FSunny.14 mph41%30.07 "Hg10 mi
2:56 PM57 °FSunny.12 mph42%30.07 "Hg10 mi
1:56 PM56 °FSunny.16 mph46%30.07 "Hg10 mi
Weather by CustomWeather, © 2014

See weather overviewHow to use our weather pages